TimeCST,TemperatureF,Dew PointF,Humidity,Sea Level PressureIn,VisibilityMPH,Wind Direction,Wind SpeedMPH,Gust SpeedMPH,PrecipitationIn,Events,Conditions,WindDirDegrees,DateUTC
12:53 AM,39.0,12.9,34,30.36,10.0,Calm,Calm,-,N/A,,Clear,0,2012-12-22 06:53:00
1:53 AM,37.0,12.9,37,30.34,10.0,Calm,Calm,-,N/A,,Clear,0,2012-12-22 07:53:00
3:53 AM,37.0,12.9,37,30.31,10.0,Calm,Calm,-,N/A,,Clear,0,2012-12-22 09:53:00
4:53 AM,34.0,14.0,44,30.31,10.0,Calm,Calm,-,N/A,,Clear,0,2012-12-22 10:53:00
5:53 AM,34.0,15.1,46,30.31,10.0,Calm,Calm,-,N/A,,Clear,0,2012-12-22 11:53:00
6:53 AM,34.0,15.1,46,30.32,10.0,Calm,Calm,-,N/A,,Clear,0,2012-12-22 12:53:00
7:53 AM,35.1,18.0,50,30.33,10.0,Calm,Calm,-,N/A,,Clear,0,2012-12-22 13:53:00
8:53 AM,44.1,21.9,42,30.33,10.0,Calm,Calm,-,N/A,,Clear,0,2012-12-22 14:53:00
9:53 AM,51.1,34.0,52,30.33,10.0,South,10.4,-,N/A,,Clear,190,2012-12-22 15:53:00
10:53 AM,55.9,39.9,55,30.30,10.0,South,12.7,20.7,N/A,,Clear,180,2012-12-22 16:53:00
11:53 AM,61.0,43.0,52,30.27,10.0,South,20.7,32.2,N/A,,Clear,190,2012-12-22 17:53:00
12:53 PM,63.0,43.0,48,30.22,10.0,SSW,19.6,26.5,N/A,,Mostly Cloudy,200,2012-12-22 18:53:00
1:53 PM,63.0,43.0,48,30.19,10.0,SSW,17.3,24.2,N/A,,Mostly Cloudy,210,2012-12-22 19:53:00
2:53 PM,64.9,44.1,47,30.16,10.0,SSW,16.1,23.0,N/A,,Mostly Cloudy,200,2012-12-22 20:53:00
3:53 PM,64.0,45.0,50,30.15,10.0,South,19.6,25.3,N/A,,Overcast,190,2012-12-22 21:53:00
4:53 PM,63.0,46.0,54,30.14,10.0,SSW,11.5,19.6,N/A,,Clear,200,2012-12-22 22:53:00
5:53 PM,62.1,46.9,58,30.12,10.0,South,12.7,-,N/A,,Scattered Clouds,190,2012-12-22 23:53:00
6:53 PM,60.1,46.9,62,30.12,10.0,South,8.1,-,N/A,,Clear,190,2012-12-23 00:53:00
7:53 PM,59.0,46.9,64,30.13,10.0,South,5.8,-,N/A,,Mostly Cloudy,190,2012-12-23 01:53:00
8:53 PM,59.0,48.0,67,30.13,10.0,SSW,5.8,-,N/A,,Overcast,200,2012-12-23 02:53:00
9:53 PM,57.9,48.0,70,30.10,10.0,South,6.9,-,N/A,,Mostly Cloudy,180,2012-12-23 03:53:00
10:16 PM,59.0,48.0,67,30.12,10.0,South,5.8,-,N/A,,Mostly Cloudy,180,2012-12-23 04:16:00
10:53 PM,57.9,48.9,72,30.09,10.0,South,5.8,-,N/A,,Mostly Cloudy,190,2012-12-23 04:53:00
11:32 PM,55.9,48.9,77,30.11,10.0,South,4.6,-,N/A,,Mostly Cloudy,190,2012-12-23 05:32:00
11:53 PM,55.0,48.0,77,30.09,10.0,SSW,4.6,-,N/A,,Mostly Cloudy,200,2012-12-23 05:53:00